Change the Weather History Date:

Sunday, October 14, 2012

  Actual Average Record
Temperature  
Mean Temperature 66 °F 65 °F  
Max Temperature 81 °F 75 °F 86 °F (1975)
Min Temperature 50 °F 54 °F 33 °F (1988)
Degree Days  
Heating Degree Days 0 3  
Month to date heating degree days 26 27  
Since 1 July heating degree days 27 34  
Cooling Degree Days 1 3  
Month to date cooling degree days 68 54  
Year to date cooling degree days 2002 1857  
Growing Degree Days 15 (Base 50)    
Moisture  
Dew Point 56 °F    
Average Humidity 72    
Maximum Humidity 96    
Minimum Humidity 48    
Precipitation  
Precipitation 0.00 in 0.11 in 1.30 in (1959)
Month to date precipitation 0.95 1.67  
Year to date precipitation 43.74 44.36  
Snow  
Snow 0.00 in - - ()
Month to date snowfall 0.0  
Since 1 July snowfall 0.0  
Snow Depth 0.00 in    
Sea Level Pressure  
Sea Level Pressure 30.22 in    
Wind  
Wind Speed 3 mph (SE)    
Max Wind Speed 9 mph    
Max Gust Speed 13 mph    
Visibility 9 miles    
Events      
T = Trace of Precipitation, MM = Missing Value Source: NWS Daily Summary

Daily Weather History Graph

Daily Weather History Graph

Search for Another Location

Airport or City:

Trip Planner

Search our weather history database for the weather conditions in past years. The results will help you decide how hot, cold, wet, or windy it might be!

Date:

Astronomy

Oct. 14, 2012 Rise Set
Actual Time 7:13 AM EDT 6:33 PM EDT
Civil Twilight 6:48 AM EDT 6:59 PM EDT
Nautical Twilight 6:18 AM EDT 7:28 PM EDT
Astronomical Twilight 5:49 AM EDT 7:58 PM EDT
Moon 6:11 AM EDT (10/14) 5:52 PM EDT (10/14)
Length of Visible Light 12h 11m
Length of Day
11h 20m
Waning Crescent, 1% of the Moon is Illuminated
Oct 14
Waning Crescent
Oct 15
New
Oct 21
First Quarter
Oct 29
Full
Nov 6
Last Quarter

Hourly Weather History & Observations

Time (EDT) Temp. Dew Point Humidity Pressure Visibility Wind Dir Wind Speed Gust Speed Precip Events Conditions
1:54 AM 53.1 °F 51.1 °F 93% 30.32 in 10.0 mi Calm Calm - N/A   Clear
2:54 AM 52.0 °F 50.0 °F 93% 30.30 in 10.0 mi NE 3.5 mph - N/A   Clear
3:54 AM 53.1 °F 51.1 °F 93% 30.29 in 10.0 mi Calm Calm - N/A   Clear
4:54 AM 53.1 °F 51.1 °F 93% 30.28 in 10.0 mi Calm Calm - N/A   Clear
5:54 AM 52.0 °F 50.0 °F 93% 30.27 in 10.0 mi Calm Calm - N/A   Clear
6:35 AM 51.8 °F 51.8 °F 100% 30.27 in 1.8 mi Calm Calm - 0.01 in   Clear
6:45 AM 51.8 °F 50.0 °F 94% 30.27 in 0.8 mi Calm Calm - 0.01 in   Clear
6:54 AM 51.1 °F 50.0 °F 96% 30.27 in 1.8 mi Calm Calm - 0.01 in   Clear
7:36 AM 53.6 °F 51.8 °F 94% 30.28 in 2.0 mi Calm Calm - N/A   Clear
7:44 AM 51.8 °F 51.8 °F 100% 30.28 in 5.0 mi Calm Calm - N/A   Clear
7:54 AM 53.1 °F 51.1 °F 93% 30.28 in 10.0 mi Calm Calm - N/A   Clear
8:54 AM 62.1 °F 59.0 °F 90% 30.28 in 10.0 mi Calm Calm - N/A   Clear
9:54 AM 68.0 °F 60.1 °F 76% 30.29 in 10.0 mi Calm Calm - N/A   Clear
10:54 AM 73.9 °F 60.1 °F 62% 30.28 in 10.0 mi SSE 4.6 mph - N/A   Clear
11:54 AM 77.0 °F 59.0 °F 54% 30.27 in 10.0 mi ESE 6.9 mph - N/A   Clear
12:54 PM 77.0 °F 59.0 °F 54% 30.23 in 10.0 mi East 8.1 mph - N/A   Clear
1:54 PM 79.0 °F 59.0 °F 50% 30.20 in 10.0 mi SSE 6.9 mph - N/A   Mostly Cloudy
2:54 PM 78.1 °F 60.1 °F 54% 30.17 in 10.0 mi ESE 5.8 mph - N/A   Scattered Clouds
3:54 PM 79.0 °F 61.0 °F 54% 30.15 in 10.0 mi SE 4.6 mph - N/A   Scattered Clouds
4:54 PM 79.0 °F 57.0 °F 47% 30.14 in 10.0 mi South 5.8 mph - N/A   Partly Cloudy
5:54 PM 75.9 °F 57.9 °F 54% 30.14 in 10.0 mi SSE 5.8 mph - N/A   Clear
6:54 PM 66.9 °F 60.1 °F 79% 30.14 in 10.0 mi South 4.6 mph - N/A   Clear
7:54 PM 64.9 °F 59.0 °F 81% 30.13 in 10.0 mi SSE 4.6 mph - N/A   Clear
8:54 PM 62.1 °F 59.0 °F 90% 30.14 in 10.0 mi Calm Calm - N/A   Clear
9:54 PM 60.1 °F 57.9 °F 93% 30.13 in 10.0 mi Calm Calm - N/A   Clear
10:54 PM 59.0 °F 57.0 °F 93% 30.11 in 10.0 mi Calm Calm - N/A   Clear
11:54 PM 57.0 °F 55.9 °F 96% 30.09 in 10.0 mi Calm Calm - N/A   Clear